Weather History for St. Joseph, MO

Change the Weather History Date:

Thursday, March 20, 2014

  Actual Average Record
Temperature  
Mean Temperature 49 °F 45 °F  
Max Temperature 72 °F 57 °F 82 °F (1934)
Min Temperature 25 °F 33 °F 9 °F (1951)
Degree Days  
Heating Degree Days 16 20  
Month to date heating degree days 579 488  
Since 1 July heating degree days 5519 4796  
Cooling Degree Days 0 0  
Month to date cooling degree days 0 0  
Year to date cooling degree days 0 0  
Moisture  
Dew Point 25 °F    
Average Humidity 51    
Maximum Humidity 85    
Minimum Humidity 16    
Precipitation  
Precipitation 0.00 in 0.08 in 0.65 in (1962)
Month to date precipitation 0.27 1.31  
Year to date precipitation 1.09 2.80  
Sea Level Pressure  
Sea Level Pressure 29.97 in    
Wind  
Wind Speed 8 mph (SSW)    
Max Wind Speed 32 mph    
Max Gust Speed 39 mph    
Visibility 8 miles    
Events      
T = Trace of Precipitation, MM = Missing Value Source: NWS Daily Summary

Daily Weather History Graph

Daily Weather History Graph

Search for Another Location

Airport:

Trip Planner

Search our weather history database for the weather conditions in past years. The results will help you decide how hot, cold, wet, or windy it might be!

Date:

Astronomy

Mar. 20, 2014 Rise Set
Actual Time 7:23 AM CDT 7:31 PM CDT
Civil Twilight 6:56 AM CDT 7:58 PM CDT
Nautical Twilight 6:24 AM CDT 8:30 PM CDT
Astronomical Twilight 5:52 AM CDT 9:02 PM CDT
Moon 11:51 PM CDT (3/20) 9:30 AM CDT (3/20)
Length of Visible Light 13h 02m
Length of Day
12h 08m
Waning Gibbous, 84% of the Moon is Illuminated
Mar 20
Waning Gibbous
Mar 23
Last Quarter
Mar 30
New
Apr 7
First Quarter
Apr 15
Full

Hourly Weather History & Observations

Time (CDT) Temp. Windchill Dew Point Humidity Pressure Visibility Wind Dir Wind Speed Gust Speed Precip Events Conditions
12:34 AM 30.9 °F 27.5 °F 28.0 °F 89% 30.09 in 1.8 mi South 3.5 mph - N/A   Clear
12:48 AM 30.2 °F 26.7 °F 26.6 °F 86% 30.09 in 3.0 mi SSW 3.5 mph - N/A   Haze
12:53 AM 30.0 °F - 25.0 °F 82% 30.10 in 10.0 mi Calm Calm - N/A   Clear
1:39 AM 30.0 °F 25.2 °F 26.1 °F 85% 30.08 in 1.8 mi SE 4.6 mph - N/A   Clear
1:48 AM 30.2 °F 25.4 °F 26.6 °F 86% 30.08 in 3.0 mi SSE 4.6 mph - N/A   Haze
1:49 AM 30.9 °F 26.2 °F 26.1 °F 82% 30.09 in 3.0 mi SSE 4.6 mph - N/A   Haze
2:53 AM 30.0 °F 26.5 °F 24.1 °F 79% 30.09 in 9.0 mi SSE 3.5 mph - N/A   Clear
3:53 AM 28.9 °F - 24.1 °F 82% 30.08 in 3.0 mi Calm Calm - N/A   Haze
4:53 AM 30.0 °F 26.5 °F 25.0 °F 82% 30.08 in 7.0 mi SSE 3.5 mph - N/A   Clear
5:53 AM 30.0 °F 25.2 °F 23.0 °F 75% 30.08 in 9.0 mi SSE 4.6 mph - N/A   Clear
6:53 AM 28.9 °F - 24.1 °F 82% 30.06 in 6.0 mi Calm Calm - N/A   Haze
7:53 AM 30.9 °F - 24.1 °F 76% 30.06 in 6.0 mi Calm Calm - N/A   Haze
8:53 AM 39.0 °F 36.8 °F 28.0 °F 65% 30.06 in 10.0 mi South 3.5 mph - N/A   Clear
9:53 AM 46.0 °F 44.8 °F 28.0 °F 50% 30.05 in 10.0 mi SW 3.5 mph - N/A   Clear
10:53 AM 52.0 °F - 28.0 °F 40% 30.03 in 10.0 mi SW 5.8 mph - N/A   Clear
11:53 AM 60.1 °F - 26.1 °F 27% 29.99 in 10.0 mi SW 17.3 mph - N/A   Clear
12:53 PM 63.0 °F - 27.0 °F 26% 29.95 in 10.0 mi SSW 15.0 mph - N/A   Clear
1:53 PM 68.0 °F - 26.1 °F 21% 29.89 in 10.0 mi SW 19.6 mph 26.5 mph N/A   Clear
2:53 PM 71.1 °F - 24.1 °F 17% 29.83 in 10.0 mi SW 24.2 mph 33.4 mph N/A   Clear
3:53 PM 72.0 °F - 25.0 °F 17% 29.81 in 10.0 mi SW 23.0 mph 32.2 mph N/A   Clear
4:53 PM 70.0 °F - 25.0 °F 18% 29.80 in 7.0 mi SW 18.4 mph 28.8 mph N/A   Mostly Cloudy
5:53 PM 70.0 °F - 21.9 °F 16% 29.80 in 10.0 mi West 15.0 mph 25.3 mph N/A   Clear
6:53 PM 64.9 °F - 21.9 °F 19% 29.81 in 10.0 mi West 9.2 mph - N/A   Clear
7:53 PM 55.0 °F - 21.9 °F 28% 29.83 in 10.0 mi WNW 9.2 mph - N/A   Clear
8:53 PM 48.0 °F - 23.0 °F 37% 29.85 in 10.0 mi WNW 6.9 mph - N/A   Clear
9:53 PM 48.0 °F - 23.0 °F 37% 29.85 in 10.0 mi Calm Calm - N/A   Clear
10:53 PM 39.9 °F 36.7 °F 25.0 °F 55% 29.85 in 10.0 mi North 4.6 mph - N/A   Clear
11:53 PM 41.0 °F 39.0 °F 26.1 °F 55% 29.84 in 10.0 mi ENE 3.5 mph - N/A   Clear